Voltar ao catálogo

CZ-4B R/B

AtivoSSO
NORAD 37181·ROCKET BODY·🇨🇳 China

Lançado Oct 6, 2010 de Taiyuan Satellite Launch Center

Loading…

Próximas Passagens (próximas 24 horas)

TLE

AtualizadoSource: Space-Track

Época: Sep 14, 2026, 09:08 UTC

1 37181U 10051C   26257.38076109  .00003457  00000-0  15745-3 0  9997
2 37181  97.7747 305.0738 0072027 162.0197 198.3609 15.19088635872181

Acompanhe CZ-4B R/B em tempo real com AllMySat

Download on the App Store